Regional Weather Roundup
Issued by NWS

Home | Current Version | Previous Version | Graphics & Text | Print | Product List | Glossary On
Versions: 1 2 3 4 5 6 7 8 9 10 11 12 13 14 15 16 17 18 19 20 21 22 23 24 25 26 27 28 29 30 31 32 33 34 35 36 37 38 39 40 41 42 43 44 45 46 47 48 49
000
ASUS43 KDMX 032207
RWRIA

WEATHER ROUNDUP FOR IOWA
NATIONAL WEATHER SERVICE DES MOINES IA
500 PM CDT FRI JUL 03 2015

NOTE: "FAIR" INDICATES FEW OR NO CLOUDS BELOW 12,000 FEET WITH NO
SIGNIFICANT WEATHER AND/OR OBSTRUCTIONS TO VISIBILITY.

* - THESE STATIONS ARE NOT NWS STATIONS...THUS NOT UNDER NWS
QUALITY CONTROL.  THEY ALSO DO NOT REPORT WEATHER SUCH
AS PRECIPITATION OR FOG.

IAZ001>003-012>014-020>022-031>034-043>046-032300-
   NORTHWEST IOWA

CITY           SKY/WX    TMP DP  RH WIND       PRES   REMARKS
CARROLL *      SUNNY     75  54  46 CALM      29.98S
CHEROKEE *     SUNNY     75  54  46 CALM      29.98F
DENISON *      SUNNY     75  52  43 CALM      29.96F
LE MARS *      SUNNY     77  59  53 SW5       29.98F
ORANGE CITY *  SUNNY     73  55  53 CALM      29.98F
SHELDON *      SUNNY     75  57  53 VRB5      29.96F
SIOUX CITY     SUNNY     79  58  48 NW6       29.97F HX  80
SPENCER        SUNNY     80  54  40 VRB7      29.97F HX  80
STORM LAKE *   SUNNY     75  54  46 W6        29.99F
$$

IAZ055>058-069>071-079>083-090>094-032300-
   SOUTHWEST IOWA

CITY           SKY/WX    TMP DP  RH WIND       PRES   REMARKS
ATLANTIC *     SUNNY     75  55  50 CALM      29.97F
AUDUBON *      SUNNY     77  52  41 CALM      29.99S
CLARINDA *     SUNNY     79  54  41 CALM      29.98S
COUNCIL BLFS * SUNNY     75  54  46 CALM      29.98F
CRESTON *      SUNNY     77  54  44 NE7       29.97F
HARLAN  *      SUNNY     75  52  43 CALM      30.01F
LAMONI         SUNNY     79  57  46 VRB5      29.96F HX  80
RED OAK *      SUNNY     79  52  38 CALM      29.97F
SHENANDOAH *   SUNNY     79  54  41 W3        29.97F
$$

IAZ047>049-059>061-072>074-084-032300-
   CENTRAL IOWA

CITY           SKY/WX    TMP DP  RH WIND       PRES   REMARKS
AMES           MOSUNNY   78  57  48 CALM      29.96F
ANKENY *       SUNNY     77  57  50 VRB5      29.95F
CHARITON *     SUNNY     77  57  50 CALM      29.96F
DES MOINES     SUNNY     78  54  43 VRB5      29.95F
GRINNELL*      SUNNY     75  54  46 W7        29.97S
KNOXVILLE *    SUNNY     75  52  43 NW7       29.95F
MARSHALLTOWN   SUNNY     78  57  48 N3        29.95F
PELLA *        SUNNY     79  57  47 W3        29.96S HX  80
PERRY *          N/A     77  55  47 N6        29.97S
$$

IAZ004>006-015-016-023>025-035-036-032300-
   NORTH CENTRAL IOWA

CITY           SKY/WX    TMP DP  RH WIND       PRES   REMARKS
ALGONA *       SUNNY     77  48  36 W7        29.97F
CLARION *      SUNNY     77  54  44 NW7       29.96F
ESTHERVILLE    SUNNY     77  56  48 W5        29.96F
FORT DODGE *   SUNNY     79  55  44 SW5       29.98F
MASON CITY     SUNNY     77  57  50 W6        29.97F
FOREST CITY *  SUNNY     75  54  46 W5        29.96F
IOWA FALLS *     N/A     77  57  50 W6        29.97F
$$

IAZ007>011-017>019-026>030-037>042-050>054-066-032300-
   NORTHEAST IOWA

CITY           SKY/WX    TMP DP  RH WIND       PRES   REMARKS
CEDAR RAPIDS   SUNNY     77  56  48 NW6       29.94F
CHARLES CITY * SUNNY     77  61  57 W9        29.96F
CLINTON *      SUNNY     75  57  53 NW3       29.97S
DECORAH *        N/A    N/A N/A N/A MISG        N/A
DUBUQUE        SUNNY     75  52  44 W7        29.96F
MONTICELLO *   SUNNY     75  54  46 CALM      29.95S
OELWEIN *      SUNNY     75  55  50 CALM      29.97S
WATERLOO       SUNNY     76  54  46 VRB3      29.94F
$$

IAZ064-065-067-068-078-032300-
   EAST CENTRAL IOWA

CITY           SKY/WX    TMP DP  RH WIND       PRES   REMARKS
DAVENPORT      SUNNY     77  59  53 NW5       29.94F
IOWA CITY      MOSUNNY   78  57  48 NW5       29.94F
MT. PLEASANT * SUNNY     81  54  39 N3        29.93F HX  80
MUSCATINE *    SUNNY     79  57  47 VRB6      29.93F HX  80
QUAD CITIES    SUNNY     77  57  50 CALM      29.92F
$$

IAZ062-063-075>077-085>089-095>099-032300-
   SOUTHEAST IOWA

CITY           SKY/WX    TMP DP  RH WIND       PRES   REMARKS
BURLINGTON     SUNNY     78  59  51 CALM      29.93F
FAIRFIELD *    SUNNY     77  55  47 CALM      29.94F
FORT MADISON * SUNNY     77  61  57 CALM      29.94F
KEOKUK *       SUNNY     77  61  57 CALM      29.93S
OSKALOOSA *      N/A     75  57  53 CALM      29.95F
CENTERVILLE *  SUNNY     75  57  53 N5        29.97S
OTTUMWA        SUNNY     78  59  51 N3        29.93F
WASHINGTON *   SUNNY     77  59  53 CALM      29.95F
$$

ABBREVIATIONS USED IN REMARKS
   TC - TEMPERATURES IN CELSIUS
  WCI - WIND CHILL INDEX
   HX - HEAT INDEX
  VSB - VISIBILITY
$$



USA.gov is the U.S. government's official web portal to all federal, state and local government web resources and services.